Temp
-9 -9 -9 -9 -9 -9 -9 -9 -9 -10 -10 -11 -12 -13 -13 -14 -14 -14 -15 -15 -15 -15 -15 -15 -14 -14 -14 -14 -13 -13 -13 -13 -13 -12 -13 -11 -11 -11 -12 -11 -12 -11 -11 -11
-9 -9 -9 -9 -9 -9 -9 -9 -9 -9 -10 -11 -12 -13 -13 -13 -13 -13 -14 -14 -15 -15 -15 -14 -15 -14 -14 -14 -13 -14 -13 -13 -13 -13 -13 -11 -11 -11 -11 -11 -11 -11 -11 -11
-9 -9 -9 -9 -9 -9 -9 -9 -9 -10 -10 -11 -11 -13 -13 -13 -13 -14 -14 -14 -15 -15 -16 -15 -14 -14 -14 -14 -14 -14 -14 -14 -14 -14 -13 -13 -11 -11 -11 -11 -10 -11 -11 -11
-9 -9 -10 -9 -9 -9 -9 -9 -10 -10 -10 -11 -11 -12 -13 -14 -14 -14 -15 -15 -15 -16 -16 -16 -15 -14 -14 -14 -14 -14 -14 -14 -13 -14 -13 -13 -12 -11 -10 -11 -11 -10 -11 -11
-9 -9 -9 -10 -10 -9 -9 -9 -10 -10 -10 -10 -11 -12 -13 -13 -14 -14 -14 -15 -16 -17 -17 -16 -15 -15 -15 -15 -14 -14 -14 -14 -13 -13 -13 -13 -13 -12 -11 -11 -10 -11 -11 -11
-10 -9 -10 -10 -10 -9 -9 -10 -10 -10 -10 -11 -11 -11 -12 -13 -13 -13 -14 -15 -15 -16 -16 -16 -15 -15 -15 -14 -13 -14 -14 -14 -14 -14 -14 -14 -13 -14 -12 -12 -12 -11 -11 -11
-10 -10 -10 -10 -10 -10 -10 -10 -10 -10 -11 -11 -11 -11 -12 -12 -13 -13 -14 -14 -14 -15 -15 -15 -15 -15 -15 -14 -14 -14 -14 -14 -14 -14 -14 -14 -14 -13 -13 -12 -13 -11 -11 -11
-10 -10 -10 -10 -10 -10 -10 -10 -10 -10 -11 -11 -11 -11 -11 -12 -12 -13 -13 -14 -13 -14 -15 -15 -15 -15 -14 -14 -14 -14 -14 -14 -14 -14 -14 -14 -13 -13 -13 -13 -12 -11 -12 -12
-10 -10 -10 -10 -10 -10 -10 -10 -11 -11 -11 -11 -11 -11 -12 -11 -12 -13 -13 -13 -14 -14 -14 -15 -15 -15 -14 -14 -14 -14 -14 -14 -14 -14 -14 -14 -14 -13 -13 -12 -11 -11 -12 -12
-11 -10 -10 -10 -10 -10 -10 -11 -11 -11 -11 -11 -11 -11 -11 -11 -12 -12 -13 -13 -14 -14 -14 -14 -14 -14 -15 -15 -15 -15 -14 -14 -14 -14 -14 -14 -14 -13 -13 -12 -11 -12 -12 -12
-11 -11 -11 -10 -10 -10 -10 -10 -11 -11 -11 -11 -11 -11 -11 -11 -12 -12 -13 -13 -13 -14 -14 -14 -14 -14 -14 -14 -14 -15 -15 -15 -14 -14 -15 -15 -15 -14 -13 -12 -13 -12 -12 -12
-11 -11 -11 -10 -10 -11 -10 -10 -10 -11 -11 -11 -11 -11 -12 -11 -12 -12 -12 -13 -13 -13 -14 -14 -15 -15 -15 -15 -14 -14 -14 -15 -15 -14 -14 -14 -14 -14 -14 -13 -12 -12 -12 -12
-11 -11 -11 -11 -11 -11 -11 -11 -10 -10 -11 -11 -11 -11 -12 -12 -12 -12 -12 -12 -13 -14 -14 -14 -14 -15 -15 -15 -15 -15 -15 -15 -15 -15 -15 -14 -14 -15 -14 -13 -13 -12 -12 -11
-11 -11 -11 -11 -11 -11 -11 -10 -10 -10 -10 -11 -11 -11 -11 -12 -12 -12 -12 -12 -13 -14 -14 -14 -14 -14 -14 -15 -15 -15 -15 -15 -15 -14 -14 -15 -14 -14 -14 -14 -14 -12 -13 -13
-11 -11 -11 -11 -11 -11 -11 -10 -10 -10 -10 -11 -11 -11 -11 -11 -12 -12 -12 -12 -12 -13 -14 -14 -14 -14 -14 -14 -15 -15 -15 -15 -14 -15 -15 -15 -15 -15 -15 -14 -14 -14 -14 -14
-12 -11 -11 -11 -11 -11 -11 -11 -11 -11 -11 -11 -11 -11 -11 -11 -12 -12 -12 -13 -13 -13 -13 -14 -14 -14 -15 -14 -14 -14 -15 -15 -15 -15 -15 -15 -15 -15 -15 -15 -14 -14 -15 -14
-12 -12 -12 -11 -11 -11 -11 -11 -11 -11 -11 -11 -11 -11 -12 -12 -12 -12 -12 -13 -13 -13 -13 -14 -14 -15 -15 -15 -15 -15 -15 -14 -15 -15 -15 -15 -15 -15 -15 -15 -15 -15 -14 -14
-12 -11 -12 -11 -11 -10 -11 -11 -11 -11 -11 -11 -11 -11 -11 -12 -12 -12 -12 -12 -13 -13 -13 -14 -14 -15 -15 -15 -15 -15 -15 -15 -15 -15 -15 -15 -15 -15 -15 -15 -15 -15 -15 -14
-12 -12 -12 -11 -11 -11 -11 -12 -12 -11 -11 -11 -11 -12 -11 -11 -11 -12 -12 -12 -13 -13 -13 -13 -14 -15 -15 -15 -15 -15 -15 -16 -16 -16 -16 -16 -16 -15 -15 -15 -15 -15 -15 -15
-12 -12 -12 -11 -11 -11 -12 -12 -12 -12 -12 -12 -12 -12 -12 -12 -12 -12 -12 -13 -13 -13 -13 -13 -14 -14 -15 -15 -15 -15 -15 -15 -16 -16 -16 -16 -16 -16 -16 -16 -16 -16 -15 -16
-12 -12 -11 -11 -11 -11 -12 -12 -12 -12 -12 -12 -12 -12 -12 -12 -12 -12 -12 -12 -13 -13 -13 -14 -14 -14 -14 -15 -15 -15 -16 -16 -16 -16 -16 -16 -16 -16 -16 -17 -17 -16 -16 -16
-13 -12 -12 -12 -11 -12 -12 -12 -12 -13 -12 -12 -12 -12 -12 -13 -13 -13 -13 -13 -13 -13 -14 -14 -15 -14 -14 -15 -15 -15 -15 -16 -16 -16 -16 -16 -16 -17 -17 -17 -17 -17 -17 -17
-13 -13 -12 -12 -12 -13 -13 -13 -13 -13 -13 -13 -12 -12 -13 -13 -13 -13 -13 -13 -13 -14 -13 -14 -15 -15 -15 -15 -15 -15 -15 -15 -16 -15 -15 -16 -16 -16 -17 -17 -17 -17 -17 -17
-14 -13 -13 -13 -13 -13 -13 -13 -13 -13 -13 -13 -13 -13 -13 -13 -13 -13 -14 -14 -13 -13 -14 -15 -15 -15 -15 -15 -15 -15 -15 -15 -15 -15 -15 -16 -16 -16 -17 -17 -17 -17 -17 -17
-14 -14 -13 -13 -13 -13 -13 -13 -14 -14 -14 -13 -13 -13 -13 -13 -14 -14 -14 -14 -14 -13 -14 -15 -15 -16 -16 -16 -16 -16 -16 -16 -16 -15 -16 -16 -16 -16 -17 -17 -17 -17 -17 -18
-14 -13 -13 -13 -14 -14 -14 -15 -14 -14 -14 -14 -13 -13 -13 -14 -14 -14 -15 -15 -15 -14 -14 -15 -16 -16 -16 -16 -16 -16 -16 -16 -16 -16 -16 -16 -16 -16 -17 -17 -18 -17 -17 -17
Height
5806 5806 5804 5803 5801 5799 5797 5794 5790 5785 5778 5772 5765 5760 5754 5748 5742 5736 5732 5726 5718 5713 5710 5711 5712 5718 5724 5728 5733 5739 5741 5747 5752 5755 5758 5764 5770 5774 5780 5784 5790 5796 5800 5805
5802 5801 5800 5799 5798 5797 5794 5791 5787 5782 5775 5770 5764 5757 5750 5743 5737 5731 5724 5716 5708 5703 5698 5700 5704 5710 5717 5722 5728 5733 5738 5743 5747 5749 5755 5762 5765 5772 5778 5783 5786 5789 5794 5798
5798 5798 5796 5796 5795 5794 5791 5788 5783 5778 5773 5768 5763 5756 5749 5741 5734 5726 5715 5707 5699 5693 5689 5689 5697 5705 5711 5718 5722 5727 5732 5739 5744 5749 5752 5758 5762 5769 5774 5777 5779 5784 5787 5791
5796 5795 5794 5793 5792 5791 5788 5785 5780 5776 5771 5766 5760 5757 5748 5740 5731 5722 5712 5704 5695 5684 5679 5682 5694 5702 5707 5714 5718 5723 5730 5736 5743 5747 5751 5756 5759 5764 5766 5770 5773 5776 5780 5783
5794 5792 5791 5790 5789 5787 5785 5782 5778 5773 5769 5765 5759 5754 5747 5740 5731 5721 5712 5703 5693 5682 5676 5679 5692 5699 5706 5709 5716 5722 5729 5733 5740 5745 5747 5753 5754 5755 5756 5762 5762 5764 5771 5776
5790 5789 5788 5787 5786 5784 5782 5778 5775 5771 5768 5763 5759 5754 5747 5740 5732 5722 5714 5704 5696 5688 5683 5684 5693 5699 5703 5710 5716 5721 5728 5731 5736 5741 5743 5748 5752 5753 5754 5757 5761 5765 5766 5772
5787 5786 5785 5784 5783 5781 5779 5776 5773 5771 5765 5762 5758 5753 5747 5741 5733 5725 5717 5709 5702 5697 5692 5691 5695 5701 5703 5709 5715 5720 5726 5731 5734 5737 5740 5744 5746 5748 5752 5755 5758 5760 5762 5766
5785 5785 5783 5782 5781 5779 5776 5774 5771 5767 5764 5760 5757 5753 5748 5742 5736 5729 5722 5715 5709 5705 5701 5699 5699 5703 5707 5711 5715 5721 5725 5729 5733 5736 5737 5739 5740 5745 5747 5753 5754 5755 5758 5761
5781 5781 5780 5779 5778 5776 5773 5772 5769 5766 5763 5759 5756 5753 5749 5743 5738 5733 5728 5721 5716 5712 5709 5707 5706 5706 5707 5712 5716 5720 5724 5728 5731 5734 5734 5736 5738 5741 5744 5745 5750 5752 5755 5758
5779 5778 5777 5776 5775 5773 5770 5769 5767 5764 5762 5757 5755 5752 5748 5744 5740 5736 5732 5727 5722 5718 5715 5714 5714 5713 5714 5714 5716 5720 5724 5728 5730 5732 5732 5733 5735 5737 5740 5742 5746 5749 5752 5754
5775 5775 5776 5773 5772 5770 5768 5766 5765 5763 5760 5756 5753 5751 5747 5744 5741 5738 5734 5731 5728 5725 5723 5720 5719 5719 5719 5720 5722 5722 5723 5725 5727 5727 5729 5732 5732 5735 5735 5739 5742 5748 5750 5748
5769 5770 5771 5770 5768 5767 5766 5764 5763 5760 5758 5754 5752 5751 5747 5744 5742 5739 5736 5734 5731 5729 5727 5726 5724 5723 5723 5724 5725 5726 5727 5727 5726 5722 5726 5730 5732 5732 5734 5738 5740 5745 5747 5745
5763 5765 5766 5766 5766 5765 5763 5762 5760 5758 5756 5753 5751 5750 5747 5743 5742 5740 5738 5735 5733 5730 5729 5728 5727 5726 5725 5724 5724 5725 5726 5728 5729 5729 5731 5727 5728 5729 5731 5733 5735 5737 5740 5739
5755 5758 5761 5762 5762 5761 5760 5758 5757 5756 5754 5752 5749 5747 5746 5743 5741 5740 5738 5736 5734 5732 5730 5729 5728 5727 5727 5726 5726 5726 5726 5728 5729 5730 5730 5728 5729 5729 5729 5731 5731 5734 5736 5735
5748 5752 5754 5754 5756 5756 5756 5756 5755 5753 5752 5750 5748 5745 5744 5743 5740 5738 5738 5736 5735 5733 5732 5731 5730 5729 5728 5727 5727 5727 5727 5728 5728 5730 5731 5731 5729 5727 5727 5728 5729 5729 5730 5731
5740 5743 5746 5748 5749 5751 5752 5752 5752 5750 5749 5748 5746 5743 5741 5741 5739 5737 5736 5735 5734 5732 5731 5731 5730 5730 5729 5728 5728 5728 5728 5728 5729 5729 5730 5730 5728 5725 5726 5724 5728 5729 5725 5726
5728 5733 5738 5740 5742 5743 5748 5748 5748 5747 5746 5745 5743 5742 5740 5738 5738 5736 5735 5734 5733 5731 5730 5729 5728 5728 5728 5727 5727 5727 5727 5727 5727 5727 5727 5727 5726 5724 5723 5723 5724 5721 5722 5724
5719 5724 5729 5733 5734 5736 5742 5742 5743 5744 5743 5742 5740 5739 5738 5736 5735 5734 5733 5732 5731 5729 5728 5727 5727 5726 5725 5725 5725 5725 5725 5724 5724 5724 5724 5723 5722 5720 5718 5718 5719 5718 5717 5717
5709 5714 5719 5723 5727 5732 5734 5737 5738 5739 5740 5738 5737 5736 5735 5733 5733 5731 5729 5729 5729 5728 5726 5724 5724 5723 5722 5722 5722 5721 5721 5720 5720 5720 5719 5719 5718 5717 5717 5716 5715 5714 5712 5710
5697 5704 5709 5714 5718 5723 5730 5730 5732 5734 5735 5734 5733 5732 5732 5731 5730 5729 5727 5725 5725 5725 5724 5722 5721 5720 5720 5719 5718 5717 5717 5716 5716 5716 5716 5715 5714 5713 5713 5712 5710 5709 5707 5705
5687 5693 5700 5706 5710 5717 5723 5724 5726 5730 5733 5730 5730 5729 5728 5728 5727 5726 5725 5723 5721 5720 5720 5719 5717 5716 5716 5715 5715 5714 5713 5712 5711 5710 5710 5709 5708 5708 5707 5707 5706 5703 5700 5698
5677 5685 5691 5697 5701 5711 5717 5719 5723 5724 5725 5725 5726 5725 5725 5725 5724 5722 5721 5719 5718 5715 5714 5714 5713 5713 5712 5711 5710 5709 5709 5708 5707 5706 5704 5703 5702 5701 5700 5699 5698 5697 5695 5693
5663 5673 5682 5691 5702 5708 5709 5711 5714 5717 5720 5720 5721 5721 5721 5721 5720 5718 5717 5716 5713 5712 5710 5709 5708 5708 5707 5706 5705 5705 5705 5703 5702 5701 5699 5698 5696 5695 5694 5693 5691 5689 5687 5686
5654 5665 5672 5680 5690 5695 5700 5702 5708 5709 5711 5714 5715 5716 5716 5716 5715 5714 5712 5711 5710 5707 5705 5703 5702 5701 5701 5700 5699 5699 5699 5698 5697 5696 5694 5692 5690 5688 5686 5685 5683 5681 5680 5678
5645 5656 5665 5672 5682 5687 5691 5697 5700 5701 5702 5706 5708 5709 5709 5709 5708 5708 5707 5706 5704 5702 5699 5697 5696 5695 5694 5694 5693 5693 5692 5692 5691 5690 5687 5685 5683 5680 5679 5677 5676 5674 5672 5671
5633 5646 5654 5663 5676 5682 5686 5688 5688 5689 5695 5697 5701 5702 5702 5702 5701 5700 5699 5699 5698 5697 5694 5691 5688 5688 5687 5688 5687 5686 5685 5685 5684 5682 5680 5678 5675 5673 5671 5669 5667 5666 5665 5663
Wind_Speed
16 15 15 14 13 13 18 20 22 22 26 29 29 28 29 29 27 26 27 27 31 34 37 35 36 35 29 29 27 29 24 24 21 25 29 21 12 29 37 37 38 38 35 33
16 16 15 13 13 13 16 18 21 22 26 28 28 29 31 32 30 29 30 31 28 29 32 34 33 31 30 24 25 25 26 25 25 22 26 24 30 21 23 32 38 38 37 35
14 16 14 13 14 13 14 16 19 22 25 27 27 27 30 32 31 33 34 33 31 25 24 30 29 26 28 26 23 25 26 25 21 22 23 25 26 21 23 26 32 38 38 38
14 14 14 13 13 11 14 15 17 19 23 27 28 26 29 30 31 33 31 30 24 24 21 22 23 18 21 25 22 26 26 25 23 23 25 25 30 24 27 25 27 27 33 38
11 12 12 12 11 10 11 13 15 18 21 25 27 28 29 29 30 30 27 27 24 20 4 9 17 15 12 15 18 23 26 24 23 21 22 25 29 34 35 23 20 24 27 34
8 9 11 11 8 9 11 12 14 15 18 22 25 26 28 31 30 27 26 29 22 18 12 12 10 9 12 13 19 23 22 20 20 18 22 23 28 28 40 31 23 29 34 34
8 8 9 9 8 9 11 13 14 13 16 19 22 24 28 28 31 29 25 28 22 16 11 12 9 12 12 16 19 17 14 15 15 15 18 18 18 21 25 31 38 31 27 28
8 7 7 8 8 9 11 12 14 14 14 17 20 22 24 26 27 28 27 27 23 21 16 10 10 11 10 11 12 10 10 11 11 11 10 11 11 15 17 21 29 26 32 31
9 7 7 8 9 10 11 12 12 14 13 14 17 19 20 23 25 25 24 25 23 21 17 15 11 10 10 12 11 10 7 6 7 9 10 8 5 10 13 15 20 21 19 29
13 10 7 7 8 9 10 11 12 12 13 14 15 16 19 21 22 22 21 21 23 22 20 16 13 7 7 6 5 8 10 12 13 15 11 8 6 7 7 14 17 10 22 22
19 14 10 7 7 7 8 9 10 11 12 14 15 14 16 18 20 19 18 18 19 19 17 15 12 9 6 2 3 6 9 11 16 16 18 15 14 15 14 11 9 6 10 11
25 21 15 9 6 6 6 7 10 12 11 12 14 13 11 13 16 17 16 14 14 16 16 14 10 8 6 6 6 8 11 13 15 6 13 20 15 17 16 16 12 11 9 7
28 26 21 13 9 6 7 7 9 13 12 11 14 14 10 10 12 14 14 14 11 10 11 12 11 6 5 5 6 7 6 9 13 15 17 13 21 22 21 23 23 23 25 25
33 29 26 20 14 9 8 8 10 11 13 10 11 16 13 11 10 10 11 13 12 11 10 9 9 7 7 6 5 5 6 7 9 12 14 15 16 16 14 19 20 23 20 21
35 31 28 25 19 14 10 9 10 10 11 12 11 13 13 11 10 9 9 9 10 10 8 7 7 7 8 8 8 6 5 6 4 6 10 12 12 10 8 8 11 16 17 18
37 34 31 28 24 20 15 10 9 10 11 13 14 15 14 11 10 10 9 8 9 9 9 8 7 6 5 4 4 4 3 2 3 4 5 5 5 3 5 4 10 14 12 17
42 38 34 31 26 25 19 16 12 10 12 13 15 15 13 13 10 10 10 9 9 9 8 8 7 6 5 3 2 1 2 3 4 5 6 7 8 7 8 10 14 15 18 23
45 42 39 34 31 29 21 19 16 13 12 12 15 16 14 12 10 10 10 9 9 9 9 8 8 8 6 5 4 2 1 2 3 4 6 8 9 10 11 13 15 18 20 25
50 46 42 38 34 29 26 22 18 14 12 13 14 14 14 12 12 9 10 10 11 11 11 11 11 10 10 10 8 8 7 5 5 6 7 8 9 10 11 14 15 16 16 18
54 50 46 41 38 32 22 23 18 14 13 13 12 13 14 15 14 12 12 13 13 13 13 13 15 15 14 13 13 12 12 12 11 10 10 10 11 11 12 14 16 18 19 19
57 52 49 43 41 33 24 24 20 16 14 15 14 14 14 15 15 14 12 13 15 16 15 14 16 18 18 17 17 17 15 15 15 16 17 17 16 15 15 16 16 18 20 21
58 55 51 46 44 31 24 24 20 18 15 16 19 16 15 16 15 13 14 15 15 17 17 17 16 17 19 20 20 20 20 18 19 19 20 21 21 21 20 20 20 20 21 22
62 60 52 46 34 26 27 29 24 20 18 19 23 22 18 17 16 16 16 16 21 18 21 20 19 17 18 21 23 23 22 23 22 22 23 24 24 25 24 23 23 23 22 23
61 57 54 48 40 34 32 31 25 24 24 22 23 23 21 19 18 18 17 16 16 22 24 22 19 20 21 20 21 22 22 24 25 24 25 27 28 29 28 26 26 25 23 24
61 56 54 50 42 38 36 31 28 29 29 24 24 24 23 23 23 20 19 17 17 20 25 25 20 19 22 21 21 22 23 24 25 27 29 30 32 32 31 29 28 28 25 24
62 58 56 52 41 38 35 33 36 38 31 28 26 27 28 28 29 26 23 20 20 18 24 27 24 23 24 23 23 23 24 24 25 27 30 31 32 33 33 31 31 30 29 26
Wind_Direction
272 270 273 281 288 301 311 316 322 327 329 335 332 333 334 329 320 314 314 302 287 283 279 261 254 250 250 242 238 237 240 241 238 238 257 226 184 206 207 204 211 216 220 225
268 270 274 284 288 295 307 317 323 333 335 336 336 338 336 331 327 325 318 308 290 274 269 266 254 244 241 239 232 237 231 239 234 243 237 237 239 256 217 212 219 222 218 223
273 271 273 282 283 296 306 317 329 334 336 340 343 340 339 334 331 334 328 323 320 303 271 255 252 241 235 233 232 232 232 227 228 231 237 229 240 242 226 230 217 221 224 224
274 268 268 271 279 295 309 320 333 334 341 344 346 349 345 342 339 339 335 339 328 313 283 248 235 238 231 225 232 229 232 229 227 225 229 231 232 230 220 240 224 226 231 234
277 271 272 268 272 289 306 319 330 341 343 346 349 353 354 354 353 348 355 347 353 1 328 207 204 237 220 215 222 221 229 226 228 233 230 227 225 236 230 218 215 211 221 226
278 278 271 263 267 288 304 318 330 338 345 349 349 355 359 0 1 2 10 6 12 25 51 100 139 177 196 191 213 216 223 224 226 238 246 244 238 244 248 247 216 234 231 235
272 282 273 267 273 288 301 313 325 336 349 349 350 358 1 2 5 12 15 19 19 42 58 95 120 158 182 178 192 204 220 223 229 245 248 261 263 256 257 258 263 250 230 235
257 257 267 271 279 292 302 310 322 336 345 347 351 360 3 10 8 17 28 37 52 51 63 81 115 123 139 157 179 192 209 217 238 243 249 251 259 264 263 270 259 276 279 273
245 255 267 278 288 301 307 308 319 326 334 342 349 358 5 12 12 19 27 39 42 43 54 60 68 98 130 157 175 190 202 217 216 197 181 178 202 245 246 256 258 249 262 234
240 252 269 285 293 300 310 311 316 323 331 335 344 357 4 11 16 15 28 37 46 45 49 56 66 82 120 129 148 154 163 170 168 164 154 175 168 132 171 225 240 297 289 220
236 244 260 275 291 306 327 327 320 322 330 331 335 351 4 8 12 16 21 38 46 52 56 62 66 73 88 110 160 170 174 172 165 167 169 162 157 150 136 129 131 184 227 227
237 238 250 266 290 292 316 351 347 334 327 326 324 342 355 6 6 14 15 27 45 51 54 56 70 89 114 133 155 180 185 184 179 170 168 188 180 164 165 167 173 213 238 227
237 239 242 253 273 283 294 314 329 333 327 321 321 331 342 357 2 6 12 17 36 50 52 56 53 74 107 140 152 162 182 210 205 208 205 212 198 196 200 200 200 213 221 214
233 236 237 242 254 269 291 314 322 332 330 325 322 321 339 337 351 356 3 12 20 43 47 56 66 72 65 91 156 167 174 184 215 230 238 231 214 210 225 231 227 228 248 255
231 233 235 237 242 257 272 297 317 324 332 332 320 312 323 329 333 338 348 0 8 27 43 51 65 73 75 71 74 98 153 170 195 237 233 231 221 203 207 221 236 238 245 257
230 230 231 233 234 242 254 279 303 318 319 324 330 319 307 319 327 323 325 341 344 1 19 27 37 59 78 88 83 73 86 137 176 195 227 247 272 274 263 272 263 264 274 268
225 226 226 228 232 238 241 254 271 295 315 319 316 324 308 303 314 315 317 329 324 330 342 356 2 13 28 43 85 158 219 258 276 277 274 275 279 280 284 281 280 284 278 272
222 223 225 225 232 237 234 243 258 275 303 320 312 312 317 298 299 310 320 324 309 306 309 316 323 329 336 344 342 324 279 266 275 282 290 297 302 304 303 296 289 285 282 280
220 221 225 226 231 237 234 243 251 264 294 316 314 308 311 315 314 315 307 302 296 296 295 298 300 303 307 309 313 317 315 308 299 297 298 300 298 295 295 290 287 285 285 283
218 219 222 225 230 234 230 242 245 261 279 301 313 309 303 307 309 312 309 297 295 296 296 292 293 293 295 296 300 301 301 303 304 302 298 293 292 295 296 296 296 295 293 290
220 218 222 225 230 229 226 240 245 251 268 289 302 311 302 291 296 300 306 304 298 293 294 291 285 286 287 289 290 291 291 295 298 301 303 304 303 301 298 297 295 294 295 295
224 221 222 225 230 224 228 239 248 246 259 275 295 306 309 283 283 296 311 314 302 295 291 289 286 283 283 283 282 282 284 288 292 295 298 299 300 301 300 300 299 294 290 290
221 223 225 228 230 225 229 236 242 250 258 271 287 291 306 299 285 283 292 307 306 296 290 287 287 286 280 279 278 279 281 284 287 290 291 292 294 295 297 296 295 295 293 292
221 222 224 224 220 220 224 235 239 251 261 269 279 286 299 296 300 287 280 295 306 293 286 288 287 282 280 282 279 278 277 281 285 287 288 289 290 292 293 292 291 293 291 292
221 221 224 226 222 224 230 237 247 256 256 265 274 285 291 300 300 305 287 285 310 296 283 285 288 283 276 275 277 279 280 278 282 287 290 289 289 289 290 290 289 290 290 289
221 221 224 227 224 226 230 236 241 250 256 263 272 278 284 294 296 302 302 298 306 300 282 282 284 282 280 278 274 275 275 275 280 287 290 290 291 291 290 291 288 290 290 287